WAT369 EDDN-LPMA

Flight info

Callsign WAT369
Flight time N/A
Altitude 34000
Route BOLSI1G BOLSI Y166 DKB N869 TEDGO DCT TITIX DCT BENOT/N0449F330 DCT NEMOS DCT NINTU DCT MEBAK DCT REPSI DCT LERGA DCT MINSO DCT NARAK DCT AGN DCT PIPOR L866 PPN DCT MIRPO/N0453F350 DCT DGO DCT NEA L14 ADINO DCT ESP DCT GANSU DCT NARTA DCT RAKUN
Aircraft A321/M-SDE3FGHIRWY/LB1

Departure

Time 2026-05-03 21:38
Airport Nuremberg Airport (EDDN)

Arrival

Time N/A
Airport Cristiano Ronaldo International Airport (LPMA)
Time Latitude Longitude Altitude Speed Heading
2026-05-03 21:11 49.49517 11.07791 1025 ft 0 kts 188°
2026-05-03 21:29 49.49520 11.07792 1028 ft 2 kts 188°
2026-05-03 21:29 49.49546 11.07796 1029 ft 4 kts 182°
2026-05-03 21:29 49.49573 11.07795 1028 ft 4 kts 173°
2026-05-03 21:30 49.49595 11.07789 1030 ft 1 kts 166°
2026-05-03 21:30 49.49600 11.07788 1030 ft 1 kts 166°
2026-05-03 21:33 49.49596 11.07791 1030 ft 1 kts 151°
2026-05-03 21:33 49.49586 11.07824 1029 ft 6 kts 117°
2026-05-03 21:33 49.49566 11.07971 1030 ft 24 kts 99°
2026-05-03 21:33 49.49539 11.08237 1030 ft 25 kts 98°
2026-05-03 21:34 49.49607 11.08377 1031 ft 14 kts 22°
2026-05-03 21:34 49.49620 11.08443 1031 ft 4 kts 114°
2026-05-03 21:34 49.49608 11.08512 1032 ft 20 kts 101°
2026-05-03 21:34 49.49580 11.08799 1035 ft 28 kts 98°
2026-05-03 21:35 49.49552 11.09087 1037 ft 27 kts 98°
2026-05-03 21:35 49.49536 11.09348 1042 ft 20 kts 71°
2026-05-03 21:35 49.49611 11.09521 1043 ft 19 kts 52°
2026-05-03 21:35 49.49698 11.09490 1043 ft 15 kts 300°
2026-05-03 21:36 49.49712 11.09404 1042 ft 1 kts 277°
2026-05-03 21:36 49.49713 11.09388 1042 ft 2 kts 277°
2026-05-03 21:36 49.49714 11.09374 1042 ft 0 kts 277°
2026-05-03 21:36 49.49715 11.09363 1042 ft 2 kts 278°
2026-05-03 21:37 49.49723 11.09299 1042 ft 19 kts 279°
2026-05-03 21:37 49.49782 11.08702 1030 ft 92 kts 278°
2026-05-03 21:37 49.49909 11.07416 1031 ft 148 kts 278°
2026-05-03 21:37 49.50090 11.05710 1470 ft 161 kts 280°
2026-05-03 21:38 49.50251 11.04016 2238 ft 159 kts 280°
2026-05-03 21:38 49.50402 11.02355 3009 ft 151 kts 280°
2026-05-03 21:38 49.50545 11.00766 3409 ft 157 kts 281°
2026-05-03 21:38 49.50725 10.98987 3519 ft 180 kts 281°
2026-05-03 21:39 49.50931 10.96978 3667 ft 200 kts 281°
2026-05-03 21:39 49.51153 10.94763 3789 ft 220 kts 281°
2026-05-03 21:39 49.51141 10.92290 3922 ft 246 kts 255°
2026-05-03 21:39 49.50433 10.89802 4332 ft 259 kts 247°
2026-05-03 21:40 49.49646 10.87276 4916 ft 265 kts 246°
2026-05-03 21:40 49.48847 10.84705 5526 ft 268 kts 245°
2026-05-03 21:40 49.48043 10.82111 6190 ft 270 kts 244°
2026-05-03 21:40 49.47180 10.79536 6806 ft 271 kts 234°
2026-05-03 21:41 49.45882 10.77519 7469 ft 269 kts 213°
2026-05-03 21:41 49.44184 10.76362 8151 ft 269 kts 193°
2026-05-03 21:41 49.42290 10.76151 8817 ft 270 kts 182°
2026-05-03 21:41 49.40408 10.76135 9479 ft 271 kts 184°
2026-05-03 21:42 49.38546 10.76115 10122 ft 271 kts 184°
2026-05-03 21:42 49.36607 10.76084 10350 ft 288 kts 184°
2026-05-03 21:42 49.34538 10.76042 10479 ft 307 kts 184°
2026-05-03 21:42 49.32314 10.75998 10616 ft 324 kts 183°
2026-05-03 21:43 49.30030 10.75960 11014 ft 331 kts 183°
2026-05-03 21:43 49.27717 10.75797 11518 ft 333 kts 192°
2026-05-03 21:43 49.25551 10.74728 12025 ft 334 kts 208°
2026-05-03 21:43 49.23669 10.72642 12535 ft 337 kts 225°
2026-05-03 21:44 49.22297 10.69714 13042 ft 343 kts 243°
2026-05-03 21:44 49.21531 10.66228 13549 ft 350 kts 253°
2026-05-03 21:44 49.20919 10.62597 14032 ft 354 kts 253°
2026-05-03 21:44 49.20302 10.58931 14519 ft 357 kts 253°
2026-05-03 21:45 49.19678 10.55240 15030 ft 360 kts 253°
2026-05-03 21:45 49.19045 10.51524 15533 ft 362 kts 253°
2026-05-03 21:45 49.18408 10.47795 16039 ft 364 kts 253°
2026-05-03 21:45 49.17766 10.44034 16537 ft 367 kts 254°
2026-05-03 21:46 49.17118 10.40246 17038 ft 369 kts 254°
2026-05-03 21:46 49.16463 10.36437 17526 ft 372 kts 254°
2026-05-03 21:46 49.15798 10.32595 18021 ft 374 kts 254°
2026-05-03 21:46 49.15128 10.28743 18474 ft 377 kts 254°
2026-05-03 21:47 49.14298 10.25003 18885 ft 378 kts 245°
2026-05-03 21:47 49.13009 10.21495 19306 ft 380 kts 234°
2026-05-03 21:47 49.11375 10.18326 19765 ft 380 kts 230°
2026-05-03 21:47 49.09706 10.15182 20244 ft 382 kts 231°
2026-05-03 21:48 49.08037 10.12020 20684 ft 383 kts 231°
2026-05-03 21:48 49.06360 10.08837 21069 ft 386 kts 231°
2026-05-03 21:48 49.04670 10.05634 21480 ft 388 kts 231°
2026-05-03 21:48 49.02971 10.02419 21871 ft 390 kts 231°
2026-05-03 21:49 49.01261 9.99189 22272 ft 392 kts 231°
2026-05-03 21:49 48.99546 9.95949 22662 ft 394 kts 231°
2026-05-03 21:49 48.97819 9.92696 23044 ft 396 kts 231°
2026-05-03 21:49 48.96082 9.89433 23414 ft 398 kts 231°
2026-05-03 21:50 48.94331 9.86148 23766 ft 399 kts 231°
2026-05-03 21:50 48.92576 9.82861 24076 ft 401 kts 231°
2026-05-03 21:50 48.90813 9.79566 24383 ft 402 kts 230°
2026-05-03 21:50 48.89065 9.76303 24683 ft 404 kts 230°
2026-05-03 21:51 48.87288 9.72983 24982 ft 406 kts 230°
2026-05-03 21:51 48.86085 9.70736 25181 ft 407 kts 230°
2026-05-03 21:51 48.84295 9.67400 25480 ft 408 kts 230°
2026-05-03 21:51 48.82494 9.64052 25806 ft 409 kts 230°
2026-05-03 21:52 48.80691 9.60709 26140 ft 410 kts 230°
2026-05-03 21:52 48.78295 9.56270 26540 ft 412 kts 230°
2026-05-03 21:52 48.76481 9.52908 26830 ft 413 kts 230°
2026-05-03 21:52 48.75248 9.50623 27028 ft 414 kts 230°
2026-05-03 21:53 48.73423 9.47242 27305 ft 415 kts 230°
2026-05-03 21:53 48.71587 9.43848 27576 ft 417 kts 230°
2026-05-03 21:53 48.69746 9.40453 27846 ft 418 kts 230°
2026-05-03 21:53 48.67917 9.37087 28062 ft 420 kts 230°
2026-05-03 21:54 48.66057 9.33671 28313 ft 422 kts 230°
2026-05-03 21:54 48.64189 9.30242 28568 ft 423 kts 229°
2026-05-03 21:54 48.62273 9.26844 28822 ft 424 kts 225°
2026-05-03 21:54 48.60079 9.23878 29073 ft 425 kts 217°
2026-05-03 21:55 48.57722 9.21164 29331 ft 426 kts 217°
2026-05-03 21:55 48.55362 9.18447 29588 ft 428 kts 217°
2026-05-03 21:55 48.52998 9.15725 29924 ft 427 kts 217°
2026-05-03 21:55 48.50636 9.13007 30299 ft 426 kts 217°
2026-05-03 21:56 48.48286 9.10305 30587 ft 425 kts 217°
2026-05-03 21:56 48.45936 9.07605 30910 ft 423 kts 217°
2026-05-03 21:56 48.43594 9.04921 31227 ft 422 kts 217°
2026-05-03 21:56 48.41263 9.02250 31527 ft 421 kts 218°
2026-05-03 21:57 48.38937 8.99589 31817 ft 420 kts 218°
2026-05-03 21:57 48.36616 8.96935 32106 ft 419 kts 218°
2026-05-03 21:57 48.34293 8.94283 32398 ft 418 kts 218°
2026-05-03 21:57 48.31979 8.91648 32678 ft 417 kts 218°
2026-05-03 21:58 48.29675 8.89023 32938 ft 416 kts 218°
2026-05-03 21:58 48.27366 8.86398 33193 ft 416 kts 218°
2026-05-03 21:58 48.25056 8.83778 33451 ft 416 kts 218°
2026-05-03 21:58 48.22755 8.81167 33717 ft 415 kts 218°
2026-05-03 21:59 48.20457 8.78556 33974 ft 414 kts 218°
2026-05-03 21:59 48.18159 8.75943 34060 ft 414 kts 218°
2026-05-03 21:59 48.13609 8.70788 34074 ft 412 kts 218°
2026-05-03 22:00 48.10089 8.66826 34055 ft 412 kts 218°
2026-05-03 22:00 48.05504 8.61676 34082 ft 413 kts 218°
2026-05-03 22:01 48.00896 8.56515 34077 ft 414 kts 218°
2026-05-03 22:01 47.96290 8.51353 34078 ft 414 kts 218°
2026-05-03 22:02 47.91683 8.46196 34098 ft 414 kts 218°
2026-05-03 22:02 47.87074 8.41054 34091 ft 413 kts 218°
2026-05-03 22:03 47.82964 8.35192 34096 ft 412 kts 227°
2026-05-03 22:03 47.79035 8.29050 34089 ft 412 kts 227°
2026-05-03 22:04 47.75073 8.22878 34100 ft 412 kts 227°
2026-05-03 22:04 47.71106 8.16726 34097 ft 412 kts 227°
2026-05-03 22:05 47.67137 8.10576 34084 ft 412 kts 227°
2026-05-03 22:05 47.63168 8.04435 34098 ft 412 kts 227°
2026-05-03 22:06 47.59190 7.98304 34092 ft 413 kts 226°
2026-05-03 22:06 47.55205 7.92172 34087 ft 413 kts 227°
2026-05-03 22:07 47.51223 7.86055 34074 ft 413 kts 227°
2026-05-03 22:07 47.47235 7.79945 34077 ft 413 kts 226°
2026-05-03 22:08 47.43274 7.73905 34080 ft 412 kts 226°
2026-05-03 22:08 47.39285 7.67833 34084 ft 412 kts 226°
2026-05-03 22:09 47.35300 7.61761 34079 ft 412 kts 226°
2026-05-03 22:10 47.29315 7.52684 34080 ft 412 kts 226°
2026-05-03 22:10 47.25316 7.46631 34099 ft 412 kts 226°
2026-05-03 22:11 47.21306 7.40592 34111 ft 412 kts 226°
2026-05-03 22:11 47.17307 7.34580 34109 ft 411 kts 226°
2026-05-03 22:12 47.13331 7.28608 34100 ft 411 kts 226°
2026-05-03 22:12 47.09332 7.22614 34095 ft 411 kts 226°
2026-05-03 22:13 47.05383 7.16572 34097 ft 410 kts 231°
2026-05-03 22:13 47.01819 7.10048 34098 ft 410 kts 232°
2026-05-03 22:14 46.98259 7.03525 34099 ft 410 kts 232°
2026-05-03 22:14 46.94687 6.97015 34092 ft 410 kts 232°
2026-05-03 22:15 46.91109 6.90523 34108 ft 409 kts 232°
2026-05-03 22:15 46.87539 6.84038 34110 ft 409 kts 232°
2026-05-03 22:16 46.83967 6.77572 34107 ft 409 kts 231°
2026-05-03 22:16 46.80526 6.71045 34091 ft 408 kts 233°
2026-05-03 22:16 46.78531 6.68094 33996 ft 410 kts 220°
2026-05-03 22:17 46.76432 6.65336 34082 ft 405 kts 229°
2026-05-03 22:17 46.72980 6.58863 34070 ft 405 kts 236°
2026-05-03 22:18 46.69735 6.52126 34067 ft 407 kts 234°
2026-05-03 22:18 46.66267 6.45604 34094 ft 408 kts 232°
2026-05-03 22:19 46.62647 6.39236 34096 ft 408 kts 231°
2026-05-03 22:19 46.59017 6.32900 34101 ft 407 kts 231°
2026-05-03 22:20 46.55417 6.26534 34093 ft 407 kts 231°
2026-05-03 22:20 46.51834 6.20176 34092 ft 407 kts 231°
2026-05-03 22:21 46.48244 6.13814 34091 ft 407 kts 231°
2026-05-03 22:21 46.44671 6.07513 34093 ft 407 kts 231°
2026-05-03 22:22 46.41068 6.01181 34097 ft 407 kts 231°
2026-05-03 22:22 46.37463 5.94862 34099 ft 407 kts 231°
2026-05-03 22:23 46.33857 5.88549 34099 ft 407 kts 231°
2026-05-03 22:23 46.30242 5.82244 34097 ft 407 kts 231°
2026-05-03 22:24 46.26630 5.75949 34093 ft 406 kts 231°
2026-05-03 22:24 46.23018 5.69675 34086 ft 406 kts 231°
2026-05-03 22:25 46.19394 5.63396 34077 ft 407 kts 230°
2026-05-03 22:25 46.15787 5.57156 34082 ft 408 kts 230°
2026-05-03 22:26 46.12448 5.50556 34069 ft 408 kts 235°
2026-05-03 22:26 46.09226 5.43821 34084 ft 408 kts 235°
2026-05-03 22:27 46.05998 5.37103 34067 ft 408 kts 234°
2026-05-03 22:27 46.02764 5.30396 34073 ft 408 kts 234°
2026-05-03 22:28 45.99530 5.23698 34075 ft 408 kts 234°
2026-05-03 22:28 45.96286 5.17013 34074 ft 407 kts 234°
2026-05-03 22:29 45.93048 5.10327 34075 ft 408 kts 234°
2026-05-03 22:29 45.89802 5.03645 34072 ft 408 kts 234°
2026-05-03 22:30 45.86552 4.96974 34073 ft 408 kts 234°
2026-05-03 22:30 45.83298 4.90320 34064 ft 408 kts 234°
2026-05-03 22:31 45.80057 4.83711 34076 ft 408 kts 234°
2026-05-03 22:31 45.76795 4.77069 34080 ft 408 kts 234°
2026-05-03 22:32 45.73530 4.70424 34098 ft 407 kts 234°
2026-05-03 22:32 45.70267 4.63806 34084 ft 406 kts 234°
2026-05-03 22:33 45.67010 4.57217 34076 ft 405 kts 234°
2026-05-03 22:33 45.63755 4.50646 34073 ft 404 kts 234°
2026-05-03 22:34 45.60503 4.44095 34074 ft 404 kts 234°
2026-05-03 22:34 45.57255 4.37561 34077 ft 403 kts 234°
2026-05-03 22:35 45.54000 4.31036 34075 ft 403 kts 233°
2026-05-03 22:35 45.50764 4.24571 34090 ft 403 kts 233°
2026-05-03 22:36 45.47512 4.18075 34083 ft 401 kts 233°
2026-05-03 22:36 45.44260 4.11614 34081 ft 401 kts 233°
2026-05-03 22:37 45.41012 4.05174 34080 ft 400 kts 233°
2026-05-03 22:37 45.37766 3.98737 34075 ft 400 kts 233°
2026-05-03 22:38 45.34516 3.92318 34075 ft 400 kts 233°
2026-05-03 22:38 45.31256 3.85899 34067 ft 400 kts 233°
2026-05-03 22:39 45.28001 3.79499 34074 ft 400 kts 232°
2026-05-03 22:39 45.24747 3.73102 34073 ft 400 kts 233°
2026-05-03 22:40 45.21579 3.66682 34072 ft 400 kts 233°
2026-05-03 22:40 45.18420 3.60201 34071 ft 400 kts 233°
2026-05-03 22:41 45.15247 3.53736 34076 ft 399 kts 233°
2026-05-03 22:41 45.12053 3.47295 34053 ft 399 kts 233°
2026-05-03 22:42 45.08857 3.40860 34059 ft 399 kts 233°
2026-05-03 22:42 45.06197 3.35519 34056 ft 400 kts 233°
2026-05-03 22:43 45.02986 3.29099 34060 ft 400 kts 233°
2026-05-03 22:43 44.99776 3.22676 34066 ft 400 kts 233°
2026-05-03 22:44 44.96568 3.16242 34063 ft 400 kts 233°
2026-05-03 22:44 44.93353 3.09821 34056 ft 400 kts 233°
2026-05-03 22:45 44.90130 3.03416 34075 ft 401 kts 233°
2026-05-03 22:45 44.86898 2.97005 34070 ft 401 kts 233°
2026-05-03 22:46 44.83678 2.90585 34067 ft 401 kts 234°
2026-05-03 22:46 44.80623 2.83981 34059 ft 402 kts 236°
2026-05-03 22:47 44.77644 2.77365 34051 ft 402 kts 235°
2026-05-03 22:47 44.74623 2.70750 34046 ft 402 kts 235°
2026-05-03 22:48 44.71574 2.64158 34069 ft 402 kts 235°
2026-05-03 22:48 44.68519 2.57580 34058 ft 402 kts 234°
2026-05-03 22:49 44.65455 2.51018 34045 ft 401 kts 234°
2026-05-03 22:49 44.62395 2.44474 34043 ft 401 kts 234°
2026-05-03 22:50 44.59337 2.37918 34040 ft 401 kts 234°
2026-05-03 22:50 44.56276 2.31371 34023 ft 402 kts 234°
2026-05-03 22:51 44.53199 2.24827 34055 ft 401 kts 235°
2026-05-03 22:51 44.50132 2.18306 34047 ft 400 kts 235°
2026-05-03 22:52 44.47092 2.11853 34038 ft 400 kts 234°
2026-05-03 22:52 44.44024 2.05370 34029 ft 399 kts 234°
2026-05-03 22:53 44.40959 1.98900 34026 ft 399 kts 234°
2026-05-03 22:53 44.37896 1.92440 33998 ft 399 kts 234°
2026-05-03 22:54 44.34821 1.85976 34023 ft 399 kts 234°
2026-05-03 22:54 44.31743 1.79531 34018 ft 399 kts 234°
2026-05-03 22:55 44.28670 1.73094 34012 ft 398 kts 234°
2026-05-03 22:55 44.25671 1.66593 34005 ft 398 kts 236°
2026-05-03 22:56 44.22704 1.60067 34006 ft 398 kts 235°
2026-05-03 22:56 44.19745 1.53611 33983 ft 398 kts 235°
2026-05-03 22:57 44.16746 1.47114 33993 ft 399 kts 235°
2026-05-03 22:57 44.13736 1.40612 33986 ft 400 kts 235°
2026-05-03 22:58 44.10724 1.34110 33978 ft 400 kts 235°
2026-05-03 22:58 44.07695 1.27610 33981 ft 400 kts 235°
2026-05-03 22:59 44.04669 1.21120 33984 ft 400 kts 235°
2026-05-03 22:59 44.01638 1.14611 33961 ft 401 kts 235°
2026-05-03 23:00 43.98607 1.08113 33978 ft 401 kts 235°
2026-05-03 23:00 43.95551 1.01609 33972 ft 402 kts 235°
2026-05-03 23:01 43.92512 0.95151 33974 ft 402 kts 235°
2026-05-03 23:01 43.89438 0.88648 33975 ft 403 kts 235°
2026-05-03 23:02 43.86446 0.82078 33976 ft 404 kts 237°
2026-05-03 23:02 43.83607 0.75367 33996 ft 404 kts 238°
2026-05-03 23:03 43.80778 0.68653 33981 ft 404 kts 238°
2026-05-03 23:03 43.77917 0.61973 33977 ft 404 kts 237°
2026-05-03 23:04 43.75021 0.55306 33974 ft 404 kts 237°
2026-05-03 23:04 43.72124 0.48652 33973 ft 404 kts 237°
2026-05-03 23:05 43.69248 0.42040 33979 ft 404 kts 237°
2026-05-03 23:05 43.66351 0.35388 34001 ft 404 kts 237°
2026-05-03 23:06 43.63453 0.28746 33987 ft 404 kts 237°
2026-05-03 23:06 43.60550 0.22119 33984 ft 403 kts 237°
2026-05-03 23:07 43.57646 0.15511 33982 ft 402 kts 237°
2026-05-03 23:07 43.54743 0.08920 33982 ft 402 kts 237°
2026-05-03 23:08 43.51837 0.02334 33983 ft 402 kts 237°
2026-05-03 23:08 43.48934 -0.04236 34000 ft 401 kts 237°
2026-05-03 23:09 43.46028 -0.10797 33988 ft 401 kts 237°
2026-05-03 23:09 43.43123 -0.17335 33982 ft 400 kts 237°
2026-05-03 23:10 43.40216 -0.23871 33970 ft 400 kts 237°
2026-05-03 23:10 43.37315 -0.30387 33962 ft 399 kts 237°
2026-05-03 23:11 43.34427 -0.36841 33964 ft 399 kts 237°
2026-05-03 23:11 43.31515 -0.43337 33966 ft 399 kts 237°
2026-05-03 23:12 43.28610 -0.49823 33965 ft 399 kts 237°
2026-05-03 23:12 43.25693 -0.56299 33960 ft 399 kts 237°
2026-05-03 23:13 43.22773 -0.62762 33961 ft 399 kts 237°
2026-05-03 23:13 43.19850 -0.69234 33961 ft 398 kts 237°
2026-05-03 23:14 43.16934 -0.75679 33961 ft 398 kts 237°
2026-05-03 23:14 43.14007 -0.82120 33994 ft 398 kts 237°
2026-05-03 23:15 43.11101 -0.88493 33986 ft 397 kts 237°
2026-05-03 23:15 43.08186 -0.94907 34002 ft 396 kts 237°
2026-05-03 23:16 43.05275 -1.01301 33980 ft 396 kts 237°
2026-05-03 23:16 43.02351 -1.07683 33996 ft 396 kts 237°
2026-05-03 23:17 42.99439 -1.14015 33990 ft 395 kts 237°
2026-05-03 23:17 42.96493 -1.20406 33991 ft 395 kts 236°
2026-05-03 23:18 42.93583 -1.26720 33985 ft 395 kts 236°
2026-05-03 23:18 42.90651 -1.33069 33988 ft 396 kts 236°
2026-05-03 23:19 42.87714 -1.39409 33990 ft 395 kts 236°
2026-05-03 23:19 42.84776 -1.45750 33988 ft 396 kts 236°
2026-05-03 23:20 42.81837 -1.52076 33986 ft 396 kts 236°
2026-05-03 23:20 42.78887 -1.58405 34002 ft 395 kts 236°
2026-05-03 23:21 42.75927 -1.64720 34001 ft 395 kts 236°
2026-05-03 23:21 42.73198 -1.71211 33989 ft 397 kts 246°
2026-05-03 23:22 42.70725 -1.82017 33991 ft 399 kts 250°
2026-05-03 23:22 42.69104 -1.89190 33997 ft 399 kts 250°
2026-05-03 23:23 42.67453 -1.96450 34017 ft 399 kts 250°
2026-05-03 23:23 42.65829 -2.03596 34016 ft 398 kts 250°
2026-05-03 23:24 42.64194 -2.10776 34015 ft 397 kts 250°
2026-05-03 23:24 42.62550 -2.17940 34015 ft 397 kts 249°
2026-05-03 23:25 42.60841 -2.25062 34011 ft 397 kts 249°
2026-05-03 23:25 42.59089 -2.32165 34036 ft 396 kts 248°
2026-05-03 23:26 42.57349 -2.39241 34021 ft 394 kts 249°
2026-05-03 23:26 42.55643 -2.46252 34019 ft 394 kts 249°
2026-05-03 23:27 42.53924 -2.53301 34015 ft 393 kts 249°
2026-05-03 23:27 42.52200 -2.60332 34013 ft 393 kts 249°
2026-05-03 23:28 42.50466 -2.67354 34037 ft 393 kts 248°
2026-05-03 23:28 42.48727 -2.74370 34027 ft 392 kts 248°
2026-05-03 23:29 42.46991 -2.81388 34023 ft 392 kts 248°
2026-05-03 23:29 42.45225 -2.88369 34016 ft 391 kts 244°
2026-05-03 23:30 42.42963 -2.95044 33987 ft 390 kts 243°
2026-05-03 23:30 42.41839 -2.98492 31159 ft 424 kts 250°
2026-05-03 23:30 42.41752 -3.02748 27714 ft 496 kts 287°
2026-05-03 23:31 42.43771 -3.06660 26403 ft 522 kts 321°
2026-05-03 23:31 42.46887 -3.08535 27857 ft 464 kts 335°
2026-05-03 23:31 42.49533 -3.10401 29021 ft 396 kts 293°
2026-05-03 23:31 42.50152 -3.13476 29652 ft 295 kts 242°
2026-05-03 23:32 42.48969 -3.15251 29143 ft 257 kts 190°
2026-05-03 23:32 42.47147 -3.14853 28273 ft 282 kts 156°
2026-05-03 23:32 42.45651 -3.13518 29417 ft 218 kts 173°
2026-05-03 23:32 42.44504 -3.12498 26532 ft 188 kts 124°
2026-05-03 23:33 42.43871 -3.09405 21850 ft 445 kts 102°
2026-05-03 23:33 42.43819 -3.06703 12582 ft 163 kts 50°
2026-05-03 23:33 42.44452 -3.04645 2811 ft 547 kts 74°
2026-05-03 23:33 42.45105 -3.02790 2829 ft 155 kts 53°
2026-05-03 23:34 42.45401 -3.02122 2290 ft 16 kts 211°